Location: Isola Pescaroli
(45.0500°N, 10.1667°E)
Time: 23:16:12
(UTC+00:00)

SL-4 R/B - Pass Details

Date: 03 March 2021
Orbit: 428 x 663 km, 51.6° (Epoch: 18 April)

Event Time Altitude Azimuth Distance (km) Brightness Sun altitude
Rises 18:11:24 0° 295° (WNW) 2,498 6.8 -11.7°
Reaches altitude 10° 18:13:46 10° 306° (NW) 1,590 5.3 -12.1°
Maximum altitude 18:16:57 30° 9° (N) 820 2.8 -12.7°
Enters shadow 18:18:48 18° 59° (ENE) 1,127 3.1 -13.0°
